星链-37933(STARLINK-37933)

导读

目前公开可查询的通用信息中暂未收录STARLINK-37933(NORAD编号69532)的专属详细参数,基于星链卫星的通用属性可整理摘要如下: STARLINK-37933是美国SpaceX公司星链低轨通信星座的组成卫星,NORAD编号为69532,属于星链第二代扩展部署批次,推测为2025至2026年间发射入轨。该卫星运行于近地轨道,搭载Ku/Ka频段通信载荷,主要为全球用户提供低时延、高速率的星链互联网接入服务,2026年当前处于正常在轨运行状态,参与星链全球组网覆盖任务。

Basic Information
目录编号:
69532
目录名称:
STARLINK-37933
国际标识:
2026-133AA
轨道中心:
EARTH
卫星名称:
星链-37933
卫星全名:
星链-37933(STARLINK-37933)
卫星状态:
在轨 (已飞行92 天)
发射日期:
2026-06-12 UTC
国别 :
美国 (US)
星等 :
--
This satellite is enrolled in the Space Conjunction Data Service (SCDS) and the current flight risk assessment level is: High Risk
Orbit Information
数据来源 国际轨道数据 AOE轨道数据
星历时间 2026-09-11T19:25:29+0800
15小时前
查看轨道信息
2026-09-06T02:00:00+0800
6天前
查看轨道信息
半长轴 6840.902km 6840.88km
偏心率 0.0001207 0.000101
轨道倾角 53.157° 53.160°
近地点辐角 90.794° 75.528°
升交点赤经 272.244° 299.014°
平近点角 269.320° 317.369°
近地点 461.939km 462.052km
远地点 463.591km 463.434km
周期 93.849分钟 93.849分钟
每日圈数 15.343795 15.343868
Detailed Information
固有亮度:
5
最大亮度:
2.5
卫星平台:
Starlink V1.0
覆盖范围:
全球
运营商:
太空探索技术公司
运营商所在国:
美国
制造商(研发单位):
太空探索技术公司
制造商所在国:
美国
使用方式:
暂无
Satellite Introduction
Starlink 计划是 SpaceX 推出的全球卫星互联网项目,通过发射低轨道卫星,为全球尤其是偏远地区提供高速、低延迟的互联网服务。自 2019 年起,Starlink 已部署数千颗卫星,旨在缩小全球数字鸿沟,推动互联网普及。该项目还为军事、航空等行业提供通信支持,带来广泛经济效益。
2D Orbit Map
3D Orbit Map
Orbit Altitude Analysis Chart
Orbit Inclination Analysis Chart
Orbit Comprehensive Analysis Chart
View Comprehensive Chart
Miss Distance Evolution Trend with All Objects
Collision Probability Evolution Trend with All Objects